JASON DEB, 37379

Orbit data source: Space-Track

JASON DEB, 37379 is space debris in LEO originally from a launch on Fri, 07 Dec 2001 UTC launched from the Air Force Western Test Range (AFWTR). Debris objects in space refer to the collection of defunct objects orbiting the Earth. Examples of debris include non-operational satellites, rocket bodies, and fragments generated from explosions, collisions, or faulty payload assembly.

Loading next visibility...
Identifier
37379, 2001-055G
Orbit
LEO
Last TLE update
8 hours ago
Origin
Manufacturer
Unknown
Mission
Spacecraft
Bus & Motor
Unknown
Mass
Unknown
Launch date (UTC)
2001-12-07 (23 years ago)
Launch vehicle
Unknown
Launch site
Air Force Western Test Range (AFWTR)
Object type
Payload
Rocket body
Debris
Shape & HBR
Unknown
Radar Cross Section
Small (<0.1 m²)

Expand to show TLE details & history

TLE from 8 hours ago
0 JASON DEB
1 37379U 01055G   25126.90748767  .00011040  00000-0  16163-1 0  9998
2 37379  66.1135  58.6081 0129593 316.4981 104.4200 13.51482670116301
Epoch: 2025-05-06T21:46Z
Definitive object data (Epoch: 2025-05-06T21:46:46.934Z)
Latitude
54.20504°
Longitude
-95.42507°
Altitude
1,100.032 km
Speed
7.295 km/s
True Right ascension
06h 25m 04s
True Declination
54° 02' 57"
Sunlit
Object was in daylight at TLE epoch
Visualization TLE readout
Latitude
-47.09014°
Longitude
74.42565°
Altitude
1,071.699 km
Speed
7.322 km/s
Apparent Right ascension
21h 37m 36s
Apparent Declination
-62° 21' 24"
Sunlit
Object is in full shadow
Visualization observer readout
Local Sidereal Time
13:45:13
Azimuth
142.8° SSE
Elevation
-47.394°
Doppler factor
1
Orbital elements
Apogee altitude
1,161.772 km
Perigee altitude
968.848 km
Semi-major axis
7,443.447 km
Eccentricity
0.0129593
Inclination
66.1135°
RAAN
58.6081°
Arg. of periapsis
316.4981°
True anomaly
105.85231°
Mean anomaly
104.42°
Eccentric anomaly
105.13675°
Mean motion
3.37973 °/min
BSTAR
0.016163
Orbital period
106.52 mins
Loading maneuver chart data...
Loading SW <> Apogee altitude chart data...
Loading historical data...
Loading historical data...
Loading historical data...
Loading historical data...
Loading historical data...
Loading historical data...
Loading historical data...

JASON DEB Visibility forecast

Observer location: undefined°, undefined°

Span
Click to sort rows by Start time (UTC) header in descending order
Start Az.
Max El. time (UTC)
Max El. Az.
Max El.
End time (UTC)
End Az.
13 mins2025-05-07 06:56:23.278Z318.737° NNW2025-05-07 07:02:23.278Z254.423° W38.053°2025-05-07 07:09:23.278Z174.622° S
11 mins2025-05-07 20:41:23.278Z191.631° SSW2025-05-07 20:46:23.278Z105.765° ESE42.082°2025-05-07 20:52:23.278Z36.471° NE
9 mins2025-05-07 22:32:23.278Z268.789° W2025-05-07 22:36:23.278Z314.907° NW24.923°2025-05-07 22:41:23.278Z7.747° NNE
9 mins2025-05-08 04:12:23.278Z3.101° NNE2025-05-08 04:16:23.278Z43.565° NE20.399°2025-05-08 04:21:23.278Z87.579° E
|